Location: Santiago
(33.4378°S, 70.6505°W)
Time: 07:55:19
(UTC+00:00)

ISS - Pass Details

Date: 05 February 2026
Orbit: 413 x 428 km, 51.6° (Epoch: 13 February)

Event Time Altitude Azimuth Distance (km) Brightness Sun altitude
Rises 23:44:21 0° 354° (N) 2,375 -0.1 -1.0°
Reaches altitude 10° 23:47:12 10° 21° (NNE) 1,522 -1.3 -1.5°
Maximum altitude 23:49:04 14° 54° (NE) 1,304 -1.8 -1.9°
Drops below altitude 10° 23:50:57 10° 87° (E) 1,537 -1.5 -2.3°
Sets 23:53:50 0° 113° (ESE) 2,415 -0.3 -2.8°
